Weather History for Liberal, KS

Change the Weather History Date:

Thursday, February 7, 2013

  Actual Average Record
Temperature  
Mean Temperature 42 °F -  
Max Temperature 55 °F 47 °F 74 °F (1987)
Min Temperature 28 °F 19 °F -2 °F (1982)
Degree Days  
Heating Degree Days 24    
Moisture  
Dew Point 25 °F    
Average Humidity 50    
Maximum Humidity 81    
Minimum Humidity 28    
Precipitation  
Precipitation 0.00 in - - ()
Sea Level Pressure  
Sea Level Pressure 30.06 in    
Wind  
Wind Speed 17 mph (North)    
Max Wind Speed 26 mph    
Max Gust Speed 38 mph    
Visibility 9 miles    
Events      
Averages and records for this station are not official NWS values.
T = Trace of Precipitation, MM = Missing Value Source: NWS Daily Summary

Daily Weather History Graph

Daily Weather History Graph

Search for Another Location

Airport:

Trip Planner

Search our weather history database for the weather conditions in past years. The results will help you decide how hot, cold, wet, or windy it might be!

Date:

Astronomy

Feb. 07, 2013 Rise Set
Actual Time 7:40 AM CST 6:15 PM CST
Civil Twilight 7:13 AM CST 6:42 PM CST
Nautical Twilight 6:42 AM CST 7:13 PM CST
Astronomical Twilight 6:12 AM CST 7:43 PM CST
Moon 5:19 AM CST (2/7) 3:44 PM CST (2/7)
Length of Visible Light 11h 29m
Length of Day
10h 35m
Waning Crescent, 9% of the Moon is Illuminated
Feb 7
Waning Crescent
Feb 10
New
Feb 17
First Quarter
Feb 25
Full
Mar 4
Last Quarter

Hourly Weather History & Observations

Time (CST) Temp. Windchill Dew Point Humidity Pressure Visibility Wind Dir Wind Speed Gust Speed Precip Events Conditions
12:15 AM 37.4 °F 28.9 °F 28.4 °F 70% 29.79 in 10.0 mi North 13.8 mph - N/A   Clear
12:35 AM 39.2 °F 30.8 °F 32.0 °F 75% 29.80 in 8.0 mi North 15.0 mph - N/A   Clear
12:55 AM 39.2 °F 30.5 °F 33.8 °F 81% 29.80 in 6.0 mi North 16.1 mph - N/A   Scattered Clouds
1:15 AM 42.8 °F 34.8 °F 35.6 °F 76% 29.81 in 1.2 mi North 17.3 mph - N/A   Overcast
1:35 AM 42.8 °F 35.1 °F 37.4 °F 81% 29.82 in 0.5 mi North 16.1 mph - N/A   Overcast
1:55 AM 42.8 °F 34.8 °F 37.4 °F 81% 29.83 in 0.8 mi North 17.3 mph - N/A   Overcast
2:15 AM 44.6 °F 37.4 °F 37.4 °F 76% 29.84 in 0.8 mi North 16.1 mph - N/A   Overcast
2:35 AM 44.6 °F 36.6 °F 39.2 °F 81% 29.85 in 1.2 mi North 19.6 mph - N/A   Overcast
2:55 AM 44.6 °F 36.4 °F 37.4 °F 76% 29.86 in 8.0 mi North 20.7 mph 26.5 mph N/A   Overcast
3:15 AM 44.6 °F 35.7 °F 35.6 °F 71% 29.87 in 10.0 mi North 24.2 mph 28.8 mph N/A   Overcast
3:35 AM 44.6 °F 35.5 °F 33.8 °F 66% 29.88 in 10.0 mi North 25.3 mph 31.1 mph N/A   Scattered Clouds
3:55 AM 44.6 °F 35.9 °F 32.0 °F 61% 29.89 in 10.0 mi North 23.0 mph - N/A   Clear
4:15 AM 42.8 °F 34.0 °F 30.2 °F 61% 29.91 in 10.0 mi NNW 20.7 mph - N/A   Scattered Clouds
4:35 AM 44.6 °F 35.7 °F 30.2 °F 57% 29.91 in 10.0 mi North 24.2 mph - N/A   Mostly Cloudy
4:55 AM 44.6 °F 35.3 °F 28.4 °F 53% 29.92 in 10.0 mi North 26.5 mph 33.4 mph N/A   Partly Cloudy
5:15 AM 42.8 °F 34.3 °F 28.4 °F 57% 29.93 in 10.0 mi North 19.6 mph - N/A   Clear
5:35 AM 42.8 °F 34.3 °F 28.4 °F 57% 29.94 in 10.0 mi North 19.6 mph - N/A   Clear
5:55 AM 42.8 °F 34.0 °F 26.6 °F 53% 29.96 in 10.0 mi North 20.7 mph - N/A   Clear
6:15 AM 42.8 °F 34.0 °F 28.4 °F 57% 29.97 in 10.0 mi North 20.7 mph 31.1 mph N/A   Mostly Cloudy
6:35 AM 42.8 °F 33.3 °F 28.4 °F 57% 29.98 in 10.0 mi North 24.2 mph 29.9 mph N/A   Overcast
6:55 AM 42.8 °F 33.1 °F 26.6 °F 53% 29.99 in 10.0 mi North 25.3 mph 38.0 mph N/A   Overcast
7:15 AM 42.8 °F 32.9 °F 26.6 °F 53% 30.00 in 10.0 mi North 26.5 mph 33.4 mph N/A   Overcast
7:35 AM 42.8 °F 33.1 °F 26.6 °F 53% 30.02 in 10.0 mi North 25.3 mph 34.5 mph N/A   Overcast
7:55 AM 42.8 °F 32.9 °F 24.8 °F 49% 30.03 in 10.0 mi North 26.5 mph 35.7 mph N/A   Mostly Cloudy
8:15 AM 41.0 °F 31.1 °F 24.8 °F 53% 30.06 in 10.0 mi North 23.0 mph 29.9 mph N/A   Partly Cloudy
8:35 AM 41.0 °F 31.4 °F 24.8 °F 53% 30.07 in 10.0 mi North 21.9 mph - N/A   Clear
8:55 AM 41.0 °F 31.4 °F 24.8 °F 53% 30.08 in 10.0 mi North 21.9 mph 26.5 mph N/A   Clear
9:15 AM 42.8 °F 33.8 °F 24.8 °F 49% 30.09 in 10.0 mi North 21.9 mph - N/A   Clear
9:35 AM 42.8 °F 33.8 °F 24.8 °F 49% 30.11 in 10.0 mi North 21.9 mph 29.9 mph N/A   Clear
9:55 AM 44.6 °F 35.5 °F 26.6 °F 49% 30.11 in 10.0 mi North 25.3 mph 33.4 mph N/A   Scattered Clouds
10:15 AM 44.6 °F 35.7 °F 24.8 °F 46% 30.12 in 10.0 mi North 24.2 mph 29.9 mph N/A   Partly Cloudy
10:35 AM 46.4 °F 37.7 °F 28.4 °F 50% 30.13 in 10.0 mi North 26.5 mph 29.9 mph N/A   Clear
10:55 AM 48.2 °F - 26.6 °F 43% 30.13 in 10.0 mi NNE 25.3 mph 33.4 mph N/A   Clear
11:15 AM 50.0 °F - 26.6 °F 40% 30.14 in 10.0 mi NNE 25.3 mph 33.4 mph N/A   Clear
11:35 AM 51.8 °F - 26.6 °F 38% 30.15 in 10.0 mi North 26.5 mph 32.2 mph N/A   Clear
11:55 AM 51.8 °F - 26.6 °F 38% 30.15 in 10.0 mi North 26.5 mph 33.4 mph N/A   Clear
12:15 PM 51.8 °F - 26.6 °F 38% 30.14 in 10.0 mi NNE 23.0 mph 31.1 mph N/A   Clear
12:35 PM 53.6 °F - 26.6 °F 35% 30.14 in 10.0 mi North 25.3 mph 31.1 mph N/A   Clear
12:55 PM 53.6 °F - 28.4 °F 38% 30.13 in 10.0 mi North 25.3 mph 32.2 mph N/A   Clear
1:15 PM 53.6 °F - 28.4 °F 38% 30.13 in 10.0 mi North 23.0 mph 34.5 mph N/A   Clear
1:35 PM 53.6 °F - 28.4 °F 38% 30.13 in 10.0 mi North 21.9 mph 28.8 mph N/A   Clear
1:55 PM 55.4 °F - 28.4 °F 36% 30.13 in 10.0 mi North 17.3 mph 31.1 mph N/A   Clear
2:15 PM 55.4 °F - 28.4 °F 36% 30.12 in 10.0 mi North 23.0 mph 29.9 mph N/A   Partly Cloudy
2:35 PM 53.6 °F - 28.4 °F 38% 30.12 in 10.0 mi North 17.3 mph 25.3 mph N/A   Partly Cloudy
2:55 PM 55.4 °F - 26.6 °F 33% 30.11 in 10.0 mi North 18.4 mph 24.2 mph N/A   Clear
3:15 PM 55.4 °F - 26.6 °F 33% 30.11 in 10.0 mi North 18.4 mph 26.5 mph N/A   Clear
3:35 PM 55.4 °F - 26.6 °F 33% 30.12 in 10.0 mi North 19.6 mph 24.2 mph N/A   Clear
3:55 PM 53.6 °F - 24.8 °F 33% 30.12 in 10.0 mi NNE 16.1 mph 24.2 mph N/A   Clear
4:15 PM 53.6 °F - 24.8 °F 33% 30.12 in 10.0 mi North 15.0 mph 24.2 mph N/A   Clear
4:35 PM 53.6 °F - 23.0 °F 30% 30.13 in 10.0 mi North 18.4 mph 21.9 mph N/A   Clear
4:55 PM 53.6 °F - 23.0 °F 30% 30.14 in 10.0 mi NNE 15.0 mph - N/A   Clear
5:15 PM 53.6 °F - 21.2 °F 28% 30.14 in 10.0 mi North 16.1 mph - N/A   Clear
5:35 PM 51.8 °F - 21.2 °F 30% 30.15 in 10.0 mi North 10.4 mph - N/A   Clear
5:55 PM 50.0 °F - 21.2 °F 32% 30.15 in 10.0 mi North 10.4 mph - N/A   Clear
6:15 PM 46.4 °F 42.4 °F 19.4 °F 34% 30.16 in 10.0 mi North 8.1 mph - N/A   Clear
6:35 PM 44.6 °F 40.7 °F 19.4 °F 37% 30.16 in 10.0 mi NNE 6.9 mph - N/A   Clear
6:55 PM 42.8 °F 39.3 °F 19.4 °F 39% 30.17 in 10.0 mi NNE 5.8 mph - N/A   Clear
7:15 PM 42.8 °F - 19.4 °F 39% 30.17 in 10.0 mi Calm Calm - N/A   Clear
7:35 PM 35.6 °F - 12.2 °F 38% 30.18 in 9.0 mi Calm Calm - N/A   Clear
7:55 PM 35.6 °F - 15.8 °F 44% 30.18 in 7.0 mi Calm Calm - N/A   Clear
8:15 PM 35.6 °F - 17.6 °F 48% 30.18 in 5.0 mi Calm Calm - N/A   Clear
8:35 PM 35.6 °F - 15.8 °F 44% 30.18 in 10.0 mi Calm Calm - N/A   Clear
8:55 PM 32.0 °F - 14.0 °F 48% 30.19 in 8.0 mi Calm Calm - N/A   Clear
9:15 PM 32.0 °F - 15.8 °F 51% 30.19 in 10.0 mi Calm Calm - N/A   Clear
9:35 PM 32.0 °F 28.7 °F 15.8 °F 51% 30.19 in 8.0 mi SW 3.5 mph - N/A   Clear
9:55 PM 30.2 °F 26.7 °F 17.6 °F 60% 30.19 in 10.0 mi SW 3.5 mph - N/A   Clear
10:15 PM 30.2 °F 25.4 °F 15.8 °F 55% 30.20 in 10.0 mi SW 4.6 mph - N/A   Clear
10:35 PM 28.4 °F 23.3 °F 15.8 °F 59% 30.20 in 10.0 mi WSW 4.6 mph - N/A   Clear
10:55 PM 30.2 °F 26.7 °F 15.8 °F 55% 30.20 in 10.0 mi WSW 3.5 mph - N/A   Clear
11:15 PM 30.2 °F 26.7 °F 15.8 °F 55% 30.20 in 10.0 mi SW 3.5 mph - N/A   Clear
11:35 PM 28.4 °F 24.6 °F 15.8 °F 59% 30.20 in 10.0 mi WSW 3.5 mph - N/A   Clear
11:55 PM 28.4 °F 22.2 °F 15.8 °F 59% 30.20 in 10.0 mi SSW 5.8 mph - N/A   Clear